Timestamp[UTC];2m Lufttemperatur [degC] (tas);Stations-Luftdruck [Pa] (ps);relative Luftfeuchtigkeit [%] (hurs);spezifische Luftfeuchtigkeit [kg/kg] (huss);Niederschlagsmenge [mm] (pr);Windgeschwindigkeit in 2m [m/s] (sfcWind);Windrichtung [deg];maximale Windgeschwindigkeit [m/s] (wsgsmax);u-Windkomponente [m/s] (uas);v-Windkomponente [m/s] (vas);Sonneneinstrahlung [W/m2];Blitzrate [n];Blitzentfernung [km];Bodenfeuchte in 5cm Tiefe [vol%];Bodenfeuchte in 15cm Tiefe [vol%];Bodenfeuchte in 30cm Tiefe [vol%];Bodenfeuchte in 60cm Tiefe [vol%];Bodentemperatur in 5cm Tiefe [degC];Bodentemperatur in 15cm Tiefe [degC];Bodentemperatur in 30cm Tiefe [degC];Bodentemperatur in 60cm Tiefe [degC];Matrixpotential in 30cm Tiefe [kPa];Bodenfeuchte aus CRNS [vol%] (mrso);Neutronen Anzahl [N/h]
2022-07-01 00:00:00;13,2;99716;93;0,0088;0,0;1,3;272;2,1;0,08;-1,33;0;0;0;19,0;21,1;19,9;21,2;18,5;19,1;19,0;17,5;-269,0;27,5;1275
2022-07-01 01:00:00;13,2;99764;93;0,0089;0,0;1,3;248;1,9;-0,43;-1,19;0;1;5;19,0;21,1;19,9;21,2;18,5;18,9;18,9;17,5;-270,6;27,7;1285
2022-07-01 02:00:00;13,0;99823;94;0,0088;0,0;1,3;235;1,8;-0,76;-1,08;0;0;0;18,9;21,0;19,9;21,2;18,3;18,7;18,9;17,6;-271,9;27,7;1260
2022-07-01 03:00:00;12,8;99836;93;0,0086;0,0;1,2;256;1,6;-0,25;-1,11;2;0;0;18,9;21,0;19,9;21,2;18,2;18,6;18,8;17,6;-276,1;27,8;1294
2022-07-01 04:00:00;12,9;99820;94;0,0087;0,0;1,1;254;1,6;-0,31;-1,05;11;0;0;18,9;21,0;19,9;21,2;18,0;18,4;18,7;17,6;-275,6;27,6;1274
2022-07-01 05:00:00;12,7;99824;92;0,0085;0,0;1,3;233;2,6;-0,75;-0,98;56;0;0;18,9;21,0;19,9;21,2;17,9;18,3;18,6;17,6;-274,3;27,5;1280
2022-07-01 06:00:00;13,5;99876;90;0,0087;0,0;1,3;240;2,6;-0,6;-1,06;171;0;0;18,9;21,0;19,9;21,2;17,8;18,2;18,6;17,6;-278,2;27,4;1362
2022-07-01 07:00:00;14,8;99928;84;0,0088;0,0;1,5;247;2,8;-0,52;-1,33;203;0;0;18,9;21,0;19,9;21,2;17,8;18,1;18,5;17,6;-278,9;27,5;1305
2022-07-01 08:00:00;15,3;99963;81;0,0088;0,0;1,4;246;2,7;-0,42;-1,17;219;1;5;18,8;21,0;19,9;21,3;17,9;18,1;18,4;17,6;-279,8;27,7;1317
2022-07-01 09:00:00;16,4;99954;76;0,0088;0,0;2,0;270;3,8;0,05;-1,9;422;0;0;18,8;21,0;19,9;21,2;18,0;18,1;18,4;17,6;-279,8;27,8;1269
2022-07-01 10:00:00;18,2;99956;70;0,0091;0,0;2,1;283;4,1;0,54;-1,92;673;1;5;18,7;21,0;19,9;21,2;18,4;18,2;18,3;17,6;-281,5;27,7;1276
2022-07-01 11:00:00;18,9;99957;62;0,0085;0,0;2,0;276;3,9;0,2;-1,95;452;0;0;18,6;21,0;19,9;21,2;18,8;18,4;18,3;17,6;-280,4;27,5;1289
2022-07-01 12:00:00;18,3;99976;64;0,0083;0,0;1,9;304;3,8;1,02;-1,58;321;0;0;18,5;21,0;19,9;21,2;19,0;18,5;18,3;17,6;-281,1;27,5;1255
2022-07-01 13:00:00;18,9;99984;61;0,0084;0,0;1,5;296;3,0;0,7;-1,28;320;4;5;18,4;21,0;19,9;21,2;18,9;18,6;18,3;17,6;-283,4;27,4;1310
2022-07-01 14:00:00;19,8;100017;56;0,0081;0,0;1,7;284;3,1;0,4;-1,57;321;0;0;18,3;21,0;19,9;21,2;19,0;18,7;18,3;17,6;-285,0;27,2;1255
2022-07-01 15:00:00;19,2;100056;58;0,0081;0,0;0,9;262;1,6;0,1;-0,78;206;1;6;18,2;21,0;19,8;21,2;19,0;18,7;18,3;17,5;-282,8;27,1;1324
2022-07-01 16:00:00;19,4;100050;59;0,0084;0,0;1,0;207;1,7;-0,78;-0,35;255;0;0;18,1;21,0;19,8;21,2;19,0;18,7;18,3;17,5;-281,7;27,1;1339
2022-07-01 17:00:00;19,4;100073;60;0,0084;0,0;1,7;214;2,7;-1,37;-0,91;116;0;0;18,1;20,9;19,8;21,2;18,9;18,7;18,4;17,5;-282,8;26,9;1293
2022-07-01 18:00:00;18,5;100114;64;0,0085;0,0;1,4;226;2,2;-0,99;-1,02;20;0;0;18,0;20,9;19,8;21,2;18,7;18,7;18,4;17,5;-282,7;26,5;1232
2022-07-01 19:00:00;18,1;100168;68;0,0087;0,0;1,2;236;2,0;-0,65;-0,95;29;0;0;18,0;20,9;19,8;21,2;18,6;18,6;18,4;17,5;-283,6;26,7;1217
2022-07-01 20:00:00;15,4;100267;76;0,0083;0,0;1,1;238;1,6;-0,56;-0,91;0;0;0;18,0;20,9;19,8;21,2;18,4;18,5;18,4;17,5;-284,4;26,7;1265
2022-07-01 21:00:00;13,8;100342;79;0,0077;0,0;0,9;237;1,5;-0,51;-0,77;0;0;0;18,0;20,9;19,8;21,2;18,2;18,4;18,4;17,5;-284,6;26,7;1346
2022-07-01 22:00:00;13,7;100354;76;0,0074;0,0;0,8;259;1,4;-0,15;-0,76;0;0;0;18,0;20,9;19,8;21,2;17,9;18,2;18,4;17,5;-285,8;26,6;1288
2022-07-01 23:00:00;14,2;100384;72;0,0073;0,0;0,9;255;1,8;-0,21;-0,86;0;0;0;18,0;20,9;19,8;21,2;17,6;18,0;18,3;17,5;-285,5;26,6;1251
2022-07-02 00:00:00;12,7;100390;79;0,0072;0,0;0,7;269;1,2;-0,02;-0,69;0;0;0;17,9;20,9;19,8;21,2;17,4;17,8;18,3;17,5;-285,2;26,5;1270
2022-07-02 01:00:00;11,8;100378;82;0,0071;0,0;1,0;233;1,6;-0,62;-0,79;0;0;0;17,9;20,9;19,8;21,2;17,1;17,6;18,2;17,5;-287,6;26,6;1321
2022-07-02 02:00:00;11,1;100388;86;0,0071;0,0;0,7;254;1,1;-0,2;-0,7;0;0;0;17,9;20,9;19,8;21,2;16,9;17,4;18,1;17,5;-288,5;26,6;1283
2022-07-02 03:00:00;10,6;100395;88;0,007;0,0;0,7;258;1,1;-0,14;-0,64;8;0;0;17,9;20,8;19,8;21,3;16,6;17,2;18,1;17,5;-289,2;26,3;1275
2022-07-02 04:00:00;12,5;100386;88;0,0079;0,0;1,0;268;1,5;0,02;-0,97;78;0;0;17,9;20,8;19,8;21,3;16,4;17,0;18,0;17,5;-287,8;26,5;1297
2022-07-02 05:00:00;14,6;100380;84;0,0087;0,0;1,0;268;1,6;0,06;-0,97;169;0;0;17,9;20,8;19,8;21,3;16,3;16,9;17,9;17,5;-290,2;26,6;1392
2022-07-02 06:00:00;17,3;100387;72;0,0088;0,0;1,5;193;2,6;-1,44;-0,34;294;0;0;17,8;20,8;19,8;21,3;16,5;16,9;17,8;17,5;-289,4;26,6;1274
2022-07-02 07:00:00;19,3;100375;63;0,0088;0,0;2,1;189;3,3;-2,09;-0,24;420;0;0;17,7;20,8;19,8;21,2;17,0;17,0;17,7;17,5;-289,8;26,4;1279
2022-07-02 08:00:00;20,2;100378;58;0,0086;0,0;2,3;194;4,1;-2,17;-0,62;572;1;2;17,7;20,8;19,8;21,2;17,8;17,3;17,7;17,4;-290,7;26,3;1297
2022-07-02 09:00:00;21,1;100332;54;0,0084;0,0;2,0;191;4,1;-1,94;-0,36;691;1;3;17,6;20,8;19,8;21,2;18,7;17,6;17,6;17,5;-290,0;26,4;1279
2022-07-02 10:00:00;22,0;100280;52;0,0086;0,0;1,7;218;4,0;-1,02;-0,89;773;0;0;17,5;20,8;19,7;21,1;19,5;17,9;17,6;17,4;-290,5;26,4;1271
2022-07-02 11:00:00;22,5;100208;50;0,0085;0,0;2,2;176;4,8;-2,11;0,04;705;0;0;17,5;20,7;19,7;21,1;20,2;18,4;17,6;17,4;-291,4;26,5;1344
2022-07-02 12:00:00;23,5;100156;47;0,0085;0,0;2,8;182;6,0;-2,75;-0,1;765;0;0;17,4;20,7;19,7;21,1;20,5;18,8;17,7;17,4;-291,8;26,3;1227
2022-07-02 13:00:00;24,3;100076;45;0,0085;0,0;2,7;191;5,5;-2,52;-0,49;732;1;2;17,3;20,7;19,7;21,1;20,6;19,1;17,8;17,4;-293,9;26,2;1295
2022-07-02 14:00:00;25,1;100028;42;0,0082;0,0;2,5;202;5,4;-2,18;-0,94;672;0;0;17,3;20,7;19,7;21,0;20,6;19,2;18,0;17,4;-292,8;26,1;1380
2022-07-02 15:00:00;25,5;99964;40;0,0082;0,0;2,7;204;5,4;-2,44;-1,14;547;0;0;17,3;20,7;19,7;21,0;20,4;19,3;18,1;17,4;-291,9;26,3;1273
2022-07-02 16:00:00;25,4;99912;41;0,0083;0,0;2,4;198;4,9;-2,25;-0,78;414;0;0;17,2;20,7;19,7;21,0;20,1;19,3;18,2;17,4;-292,1;26,0;1323
2022-07-02 17:00:00;25,2;99882;42;0,0084;0,0;2,2;183;5,1;-2,18;-0,13;261;0;0;17,2;20,6;19,7;21,0;19,9;19,3;18,3;17,3;-292,2;26,0;1321
2022-07-02 18:00:00;24,5;99850;44;0,0084;0,0;2,0;198;4,2;-1,94;-0,63;109;0;0;17,2;20,6;19,7;21,0;19,6;19,2;18,3;17,3;-293,9;26,3;1320
2022-07-02 19:00:00;23,1;99836;46;0,0081;0,0;2,1;197;3,6;-2,03;-0,62;11;0;0;17,1;20,6;19,7;21,0;19,4;19,1;18,4;17,3;-295,4;26,1;1264
2022-07-02 20:00:00;22,5;99842;46;0,0078;0,0;2,1;217;3,5;-1,59;-1,08;0;0;0;17,1;20,6;19,7;21,0;19,1;19,0;18,4;17,3;-295,9;26,1;1314
2022-07-02 21:00:00;20,5;99868;55;0,0083;0,0;1,3;242;2,5;-0,62;-1,18;0;0;0;17,1;20,6;19,7;21,0;18,9;18,9;18,5;17,4;-296,8;25,9;1369
2022-07-02 22:00:00;18,6;99872;65;0,0087;0,0;1,0;254;1,7;-0,28;-0,9;0;0;0;17,1;20,6;19,7;21,0;18,8;18,8;18,5;17,4;-304,3;25,9;1317
2022-07-02 23:00:00;17,9;99890;68;0,0088;0,0;1,2;244;2,4;-0,54;-1,04;0;0;0;17,1;20,6;19,7;21,0;18,6;18,7;18,4;17,4;-302,3;25,8;1356
2022-07-03 00:00:00;16,6;99903;73;0,0086;0,0;1,2;244;2,3;-0,54;-0,93;0;1;3;17,1;20,5;19,7;21,1;18,4;18,5;18,4;17,4;-304,1;25,9;1329
2022-07-03 01:00:00;16,0;99882;75;0,0085;0,0;1,3;239;2,2;-0,61;-1,04;0;0;0;17,1;20,5;19,7;21,1;18,1;18,3;18,4;17,4;-308,2;25,6;1393
2022-07-03 02:00:00;14,9;99856;77;0,0082;0,0;1,2;219;1,9;-0,95;-0,77;0;0;0;17,1;20,5;19,7;21,1;17,9;18,1;18,4;17,4;-310,0;25,6;1261
2022-07-03 03:00:00;14,4;99860;80;0,0082;0,0;1,1;234;1,7;-0,68;-0,71;4;0;0;17,0;20,5;19,7;21,1;17,7;18,0;18,3;17,4;-313,2;25,7;1402
2022-07-03 04:00:00;15,1;99868;80;0,0086;0,0;0,9;221;1,4;-0,69;-0,56;56;0;0;17,0;20,5;19,7;21,1;17,5;17,9;18,2;17,4;-312,9;25,5;1349
2022-07-03 05:00:00;17,8;99872;76;0,0097;0,0;1,0;292;1,8;0,41;-0,92;155;0;0;17,0;20,5;19,7;21,1;17,5;17,8;18,2;17,4;-313,5;25,4;1307
2022-07-03 06:00:00;20,2;99898;69;0,0101;0,0;1,3;262;2,4;-0,13;-1,33;287;0;0;17,0;20,5;19,7;21,1;17,7;17,8;18,1;17,4;-313,9;25,4;1373
2022-07-03 07:00:00;20,9;99894;65;0,0101;0,0;2,1;287;3,7;0,66;-1,98;405;0;0;17,0;20,4;19,6;21,0;18,1;17,9;18,1;17,4;-315,5;25,5;1296
2022-07-03 08:00:00;22,2;99898;60;0,01;0,0;2,0;280;3,3;0,37;-1,9;555;0;0;17,0;20,4;19,6;21,0;18,6;18,1;18,0;17,4;-316,8;25,1;1385
2022-07-03 09:00:00;23,4;99893;56;0,0102;0,0;2,1;288;3,8;0,71;-1,94;666;1;4;16,9;20,4;19,6;21,0;19,4;18,3;18,0;17,4;-316,6;25,0;1305
2022-07-03 10:00:00;24,6;99872;53;0,0103;0,0;2,1;282;3,7;0,52;-1,99;765;0;0;16,9;20,4;19,6;20,9;20,2;18,6;18,0;17,4;-317,5;24,9;1301
2022-07-03 11:00:00;25,3;99852;51;0,0103;0,0;2,7;274;4,8;0,24;-2,58;763;0;0;16,9;20,4;19,6;20,9;20,9;19,0;18,1;17,4;-319,1;24,7;1298
2022-07-03 12:00:00;25,4;99822;50;0,0101;0,0;2,5;290;4,4;0,79;-2,21;681;1;3;16,9;20,3;19,6;20,9;21,3;19,4;18,1;17,4;-319,6;24,6;1342
2022-07-03 13:00:00;25,4;99806;50;0,0101;0,0;3,6;295;6,8;1,61;-3,14;568;0;0;16,8;20,3;19,6;20,9;21,4;19,7;18,2;17,4;-319,0;24,7;1267
2022-07-03 14:00:00;24,7;99832;53;0,0103;0,0;4,1;302;6,8;2,18;-3,4;579;0;0;16,8;20,3;19,6;20,9;21,2;19,8;18,3;17,4;-318,0;24,9;1352
2022-07-03 15:00:00;24,1;99860;54;0,0101;0,0;4,1;301;7,6;2,13;-3,52;460;0;0;16,8;20,3;19,6;20,8;21,0;19,9;18,5;17,4;-318,6;24,6;1320
2022-07-03 16:00:00;22,9;99872;56;0,0098;0,0;3,4;306;6,3;2,03;-2,69;195;0;0;16,8;20,3;19,6;20,8;20,7;19,9;18,6;17,4;-319,8;24,7;1314
2022-07-03 17:00:00;22,5;99890;56;0,0095;0,0;3,3;312;5,6;2,18;-2,43;185;0;0;16,8;20,3;19,6;20,8;20,4;19,8;18,7;17,4;-318,7;24,7;1308
2022-07-03 18:00:00;21,7;99925;56;0,0091;0,0;2,9;305;5,6;1,66;-2,33;77;0;0;16,8;20,2;19,6;20,8;20,1;19,7;18,7;17,4;-319,7;24,4;1277
2022-07-03 19:00:00;20,3;99948;56;0,0083;0,0;2,4;295;3,8;1,01;-2,12;13;0;0;16,7;20,2;19,6;20,8;19,8;19,6;18,8;17,4;-320,4;24,5;1380
2022-07-03 20:00:00;18,9;100032;60;0,0082;0,0;2,1;297;3,7;0,95;-1,84;0;0;0;16,7;20,2;19,6;20,9;19,5;19,5;18,8;17,4;-321,3;24,2;1352
2022-07-03 21:00:00;17,9;100097;66;0,0085;0,0;1,7;286;2,7;0,52;-1,6;0;0;0;16,7;20,2;19,6;20,9;19,2;19,3;18,8;17,4;-323,0;24,2;1359
2022-07-03 22:00:00;17,0;100124;70;0,0085;0,0;1,7;285;2,9;0,49;-1,64;0;0;0;16,7;20,2;19,6;20,9;19,0;19,2;18,8;17,5;-327,7;23,8;1366
2022-07-03 23:00:00;15,6;100140;75;0,0082;0,0;1,4;269;2,0;-0,02;-1,43;0;0;0;16,7;20,2;19,6;20,9;18,8;19,0;18,8;17,5;-327,4;23,7;1376
2022-07-04 00:00:00;14,0;100132;78;0,0078;0,0;1,1;240;1,4;-0,51;-0,89;0;0;0;16,7;20,2;19,6;20,9;18,5;18,6;18,7;17,5;-329,7;23,5;1305
2022-07-04 01:00:00;13,0;100140;82;0,0077;0,0;1,1;216;1,4;-0,86;-0,6;0;0;0;16,7;20,1;19,6;20,9;18,2;18,3;18,7;17,5;-338,0;23,4;1294
2022-07-04 02:00:00;12,3;100178;84;0,0075;0,0;1,0;235;1,5;-0,53;-0,73;0;0;0;16,6;20,1;19,6;20,9;17,9;18,1;18,6;17,5;-337,1;23,1;1341
2022-07-04 03:00:00;11,3;100196;88;0,0073;0,0;1,0;217;1,5;-0,78;-0,57;5;0;0;16,6;20,1;19,6;20,9;17,6;17,9;18,5;17,5;-341,7;23,1;1338
2022-07-04 04:00:00;13,5;100208;83;0,008;0,0;0,7;236;1,3;-0,42;-0,56;73;0;0;16,6;20,1;19,5;21,0;17,4;17,7;18,4;17,5;-345,3;22,9;1337
2022-07-04 05:00:00;15,7;100206;77;0,0086;0,0;1,1;262;2,1;-0,12;-1,13;167;1;4;16,6;20,1;19,5;21,0;17,3;17,6;18,4;17,6;-344,8;22,8;1384
2022-07-04 06:00:00;16,9;100206;75;0,0089;0,0;1,4;264;2,5;-0,15;-1,43;286;0;0;16,6;20,1;19,5;20,9;17,3;17,6;18,3;17,6;-346,5;22,7;1320
2022-07-04 07:00:00;18,2;100178;69;0,009;0,0;1,4;256;2,9;-0,31;-1,26;416;0;0;16,6;20,1;19,5;20,9;17,7;17,7;18,2;17,6;-349,8;22,6;1388
2022-07-04 08:00:00;19,2;100182;59;0,0082;0,0;1,8;270;3,6;0,11;-1,69;558;0;0;16,6;20,0;19,5;20,9;18,4;17,9;18,1;17,5;-348,6;22,8;1399
2022-07-04 09:00:00;20,1;100165;53;0,0078;0,0;2,0;289;3,7;0,69;-1,87;679;0;0;16,6;20,0;19,5;20,8;18,9;18,1;18,1;17,6;-352,1;22,7;1442
2022-07-04 10:00:00;20,9;100130;50;0,0077;0,0;2,0;314;4,6;1,34;-1,38;762;0;0;16,6;20,0;19,5;20,8;19,6;18,4;18,1;17,5;-354,7;22,5;1379
2022-07-04 11:00:00;21,5;100106;47;0,0076;0,0;2,2;301;4,7;1,1;-1,83;804;0;0;16,6;20,0;19,5;20,8;20,1;18,7;18,1;17,5;-352,3;22,6;1388
2022-07-04 12:00:00;22,2;100098;45;0,0075;0,0;2,5;300;5,3;1,23;-2,14;737;0;0;16,6;20,0;19,5;20,8;20,4;19,0;18,2;17,5;-353,4;22,6;1399
2022-07-04 13:00:00;22,8;100072;45;0,0077;0,0;2,2;302;5,2;1,14;-1,84;710;2;4;16,5;19,9;19,4;20,7;20,5;19,2;18,2;17,5;-355,5;22,4;1389
2022-07-04 14:00:00;23,4;100042;44;0,0078;0,0;2,7;307;5,1;1,51;-2,14;678;0;0;16,5;19,9;19,4;20,7;20,5;19,3;18,3;17,5;-354,8;22,4;1373
2022-07-04 15:00:00;23,6;99993;43;0,0078;0,0;2,4;308;5,0;1,49;-1,88;563;0;0;16,5;19,9;19,4;20,7;20,5;19,4;18,4;17,5;-354,0;22,2;1415
2022-07-04 16:00:00;23,4;99962;44;0,0078;0,0;2,5;312;4,7;1,67;-1,84;402;0;0;16,5;19,9;19,4;20,7;20,4;19,4;18,4;17,5;-354,4;22,2;1386
2022-07-04 17:00:00;23,0;99974;44;0,0077;0,0;2,4;319;4,6;1,72;-1,53;257;0;0;16,5;19,9;19,4;20,7;20,2;19,4;18,5;17,5;-355,3;22,1;1377
2022-07-04 18:00:00;22,5;100000;44;0,0075;0,0;2,2;301;3,8;1,17;-1,89;117;0;0;16,5;19,9;19,4;20,7;20,0;19,4;18,6;17,5;-355,2;22,2;1371
2022-07-04 19:00:00;20,6;100038;50;0,0076;0,0;1,5;268;2,0;-0,02;-1,53;16;0;0;16,5;19,9;19,4;20,7;19,8;19,4;18,6;17,5;-355,3;22,3;1281
2022-07-04 20:00:00;17,9;100096;60;0,0077;0,0;1,1;239;1,5;-0,58;-0,94;0;0;0;16,5;19,9;19,4;20,7;19,5;19,1;18,7;17,5;-354,6;22,2;1440
2022-07-04 21:00:00;16,4;100133;67;0,0078;0,0;1,2;223;1,6;-0,85;-0,77;0;0;0;16,4;19,8;19,4;20,7;19,2;18,9;18,7;17,5;-356,0;22,4;1414
2022-07-04 22:00:00;15,4;100162;72;0,0078;0,0;0,8;238;1,3;-0,43;-0,69;0;0;0;16,4;19,8;19,4;20,7;18,9;18,6;18,7;17,5;-355,8;22,6;1345
2022-07-04 23:00:00;15,0;100170;74;0,0079;0,0;1,0;234;1,6;-0,59;-0,76;0;0;0;16,4;19,8;19,4;20,7;18,5;18,4;18,6;17,5;-357,2;22,5;1364
2022-07-05 00:00:00;14,7;100180;75;0,0078;0,0;0,9;238;1,4;-0,47;-0,71;0;0;0;16,4;19,8;19,4;20,8;18,3;18,2;18,6;17,6;-358,8;22,6;1395
2022-07-05 01:00:00;14,2;100205;78;0,0078;0,0;0,8;243;1,5;-0,39;-0,72;0;0;0;16,4;19,8;19,4;20,8;18,0;18,0;18,5;17,6;-362,5;22,6;1324
2022-07-05 02:00:00;13,3;100232;81;0,0077;0,0;1,0;234;1,7;-0,59;-0,81;0;0;0;16,4;19,8;19,4;20,8;17,8;17,8;18,4;17,6;-366,2;22,6;1406
2022-07-05 03:00:00;12,7;100222;84;0,0077;0,0;1,1;232;1,8;-0,67;-0,83;3;0;0;16,4;19,8;19,4;20,8;17,5;17,6;18,4;17,6;-373,1;22,6;1355
2022-07-05 04:00:00;13,6;100233;85;0,0082;0,0;1,0;235;2,0;-0,56;-0,82;59;1;3;16,3;19,7;19,4;20,8;17,3;17,5;18,3;17,6;-368,8;22,5;1382
2022-07-05 05:00:00;15,7;100254;81;0,009;0,0;1,2;264;2,2;-0,1;-1,18;147;0;0;16,3;19,7;19,4;20,8;17,2;17,5;18,2;17,6;-373,2;22,6;1332
2022-07-05 06:00:00;16,8;100285;77;0,0092;0,0;1,4;266;2,4;-0,08;-1,4;238;0;0;16,3;19,7;19,4;20,8;17,4;17,5;18,2;17,6;-376,4;22,6;1315
2022-07-05 07:00:00;18,4;100312;74;0,0097;0,0;1,8;291;3,1;0,67;-1,67;410;1;4;16,3;19,7;19,4;20,8;17,7;17,6;18,1;17,6;-384,5;22,6;1403
2022-07-05 08:00:00;19,6;100324;68;0,0096;0,0;2,0;304;3,6;1,13;-1,63;550;0;0;16,3;19,7;19,4;20,7;18,1;17,8;18,0;17,6;-386,5;22,3;1297
2022-07-05 09:00:00;21,0;100298;61;0,0094;0,0;2,2;298;4,6;0,99;-1,87;561;0;0;16,3;19,7;19,3;20,7;18,7;18,0;18,0;17,6;-390,4;22,5;1355
2022-07-05 10:00:00;21,5;100308;54;0,0086;0,0;2,9;295;5,3;1,26;-2,6;614;1;4;16,3;19,7;19,3;20,7;19,2;18,3;18,0;17,6;-386,4;22,7;1400
2022-07-05 11:00:00;22,4;100274;48;0,0081;0,0;3,2;299;6,5;1,54;-2,76;801;0;0;16,3;19,7;19,3;20,6;19,5;18,5;18,0;17,6;-389,5;22,6;1331
2022-07-05 12:00:00;22,7;100250;46;0,0079;0,0;3,4;300;6,8;1,71;-2,94;737;0;0;16,3;19,7;19,3;20,6;19,9;18,7;18,1;17,5;-384,0;22,6;1417
2022-07-05 13:00:00;22,8;100247;46;0,008;0,0;3,3;313;6,5;2,19;-2,37;613;2;4;16,3;19,6;19,3;20,6;19,9;18,9;18,1;17,5;-384,7;22,7;1364
2022-07-05 14:00:00;23,1;100248;45;0,0078;0,0;3,8;311;7,2;2,4;-2,81;605;0;0;16,3;19,6;19,3;20,6;19,9;19,0;18,2;17,5;-387,0;22,5;1390
2022-07-05 15:00:00;22,6;100240;45;0,0076;0,0;3,1;309;5,7;1,97;-2,35;346;0;0;16,3;19,6;19,3;20,6;19,8;19,1;18,3;17,5;-390,3;22,5;1444
2022-07-05 16:00:00;22,7;100220;44;0,0076;0,0;3,4;310;6,4;2,14;-2,55;348;0;0;16,3;19,6;19,3;20,5;19,6;19,1;18,3;17,5;-388,5;22,4;1333
2022-07-05 17:00:00;22,3;100234;48;0,008;0,0;3,7;309;6,8;2,33;-2,81;235;1;0;16,3;19,6;19,3;20,5;19,5;19,0;18,4;17,5;-387,9;22,5;1342
2022-07-05 18:00:00;20,5;100294;55;0,0083;0,0;3,6;318;6,7;2,68;-2,41;95;0;0;16,2;19,6;19,3;20,5;19,2;19,0;18,4;17,5;-387,8;22,4;1348
2022-07-05 19:00:00;19,1;100362;59;0,0082;0,0;2,4;313;4,6;1,67;-1,76;10;0;0;16,2;19,6;19,3;20,6;18,9;18,9;18,5;17,5;-385,8;22,3;1369
2022-07-05 20:00:00;17,8;100454;62;0,0078;0,0;2,3;309;4,4;1,44;-1,77;0;0;0;16,2;19,5;19,3;20,6;18,6;18,8;18,5;17,5;-387,2;22,4;1330
2022-07-05 21:00:00;17,5;100506;62;0,0077;0,0;2,4;308;4,5;1,48;-1,83;0;0;0;16,2;19,5;19,3;20,6;18,3;18,6;18,5;17,5;-391,6;22,3;1290
2022-07-05 22:00:00;16,5;100558;64;0,0074;0,0;2,5;306;4,5;1,5;-1,99;0;0;0;16,2;19,5;19,3;20,6;18,0;18,5;18,5;17,5;-390,6;22,3;1349
2022-07-05 23:00:00;15,5;100580;69;0,0075;0,0;2,0;297;3,9;0,93;-1,75;0;0;0;16,2;19,5;19,3;20,6;17,8;18,3;18,5;17,5;-391,5;22,4;1347
2022-07-06 00:00:00;14,6;100606;71;0,0073;0,0;2,0;291;3,4;0,73;-1,83;0;0;0;16,2;19,5;19,3;20,6;17,6;18,2;18,4;17,5;-395,1;22,2;1320
2022-07-06 01:00:00;12,9;100608;75;0,0069;0,0;1,6;286;2,7;0,46;-1,47;0;0;0;16,2;19,5;19,2;20,6;17,4;18,1;18,4;17,5;-393,1;22,1;1375
2022-07-06 02:00:00;11,9;100600;77;0,0067;0,0;1,5;282;2,4;0,33;-1,51;0;0;0;16,1;19,5;19,2;20,6;17,3;17,9;18,3;17,5;-393,2;22,1;1366
2022-07-06 03:00:00;11,2;100618;80;0,0066;0,0;1,5;278;2,3;0,23;-1,51;5;0;0;16,1;19,5;19,2;20,6;17,1;17,7;18,3;17,6;-397,1;21,9;1387
2022-07-06 04:00:00;11,6;100635;80;0,0068;0,0;1,5;281;2,6;0,31;-1,5;37;1;4;16,1;19,4;19,2;20,6;16,8;17,5;18,2;17,6;-397,5;22,0;1335
2022-07-06 05:00:00;12,6;100642;79;0,0072;0,0;1,9;290;3,3;0,68;-1,81;131;0;0;16,1;19,4;19,2;20,6;16,6;17,4;18,1;17,5;-397,7;21,9;1333
2022-07-06 06:00:00;13,9;100656;79;0,0078;0,0;2,1;305;3,9;1,25;-1,72;271;0;0;16,1;19,4;19,2;20,6;16,6;17,3;18,1;17,6;-403,0;21,9;1318
2022-07-06 07:00:00;14,7;100687;75;0,0077;0,0;2,5;301;4,9;1,27;-2,08;309;0;0;16,1;19,4;19,2;20,6;16,7;17,3;18,0;17,5;-399,5;22,2;1346
2022-07-06 08:00:00;14,8;100692;70;0,0073;0,0;2,2;293;3,6;0,87;-1,96;214;0;0;16,1;19,4;19,2;20,6;16,9;17,3;17,9;17,5;-401,0;22,3;1340
2022-07-06 09:00:00;16,0;100672;66;0,0075;0,0;2,4;292;4,8;0,92;-2,25;414;0;0;16,1;19,4;19,2;20,6;17,1;17,3;17,9;17,5;-401,5;22,1;1327
2022-07-06 10:00:00;16,4;100678;63;0,0073;0,0;2,4;296;4,6;1,12;-2,13;407;0;0;16,1;19,4;19,2;20,6;17,4;17,4;17,8;17,5;-403,7;22,1;1345
2022-07-06 11:00:00;17,5;100647;60;0,0074;0,0;2,7;298;5,0;1,32;-2,38;685;0;0;16,1;19,4;19,2;20,5;17,6;17,5;17,8;17,5;-404,2;22,0;1387
2022-07-06 12:00:00;17,9;100628;56;0,0071;0,0;2,7;304;5,2;1,48;-2,22;432;0;0;16,1;19,4;19,2;20,5;18,0;17,7;17,8;17,5;-404,7;21,9;1388
2022-07-06 13:00:00;18,1;100594;55;0,0071;0,0;2,5;294;5,5;1,06;-2,22;400;3;5;16,1;19,4;19,2;20,5;18,1;17,8;17,8;17,5;-406,0;21,7;1369
2022-07-06 14:00:00;19,0;100555;53;0,0072;0,0;2,4;308;4,5;1,46;-1,88;514;0;0;16,1;19,3;19,2;20,5;18,2;17,9;17,8;17,5;-406,0;21,8;1418
2022-07-06 15:00:00;19,9;100516;51;0,0073;0,0;2,6;296;5,4;1,15;-2,32;498;0;0;16,1;19,3;19,1;20,5;18,4;18,0;17,8;17,5;-405,6;21,8;1390
2022-07-06 16:00:00;19,9;100466;48;0,007;0,0;3,0;310;5,5;1,87;-2,27;365;1;5;16,1;19,3;19,1;20,4;18,5;18,1;17,9;17,5;-406,0;21,8;1383
2022-07-06 17:00:00;20,0;100422;48;0,007;0,0;2,6;306;4,4;1,5;-2,03;240;0;0;16,1;19,3;19,1;20,4;18,4;18,1;17,9;17,5;-405,2;21,7;1307
2022-07-06 18:00:00;19,2;100396;51;0,007;0,0;1,8;288;2,9;0,59;-1,67;65;0;0;16,1;19,3;19,1;20,4;18,3;18,1;17,9;17,4;-405,3;21,7;1242
2022-07-06 19:00:00;18,2;100392;56;0,0072;0,0;1,2;266;2,3;-0,05;-1,2;12;0;0;16,1;19,3;19,1;20,4;18,2;18,1;18,0;17,4;-405,2;21,5;1323
2022-07-06 20:00:00;17,5;100402;60;0,0075;0,0;1,0;237;1,5;-0,52;-0,8;0;0;0;16,1;19,3;19,1;20,5;18,1;18,1;18,0;17,4;-404,8;21,4;1406
2022-07-06 21:00:00;17,1;100396;64;0,0078;0,0;1,1;230;1,6;-0,66;-0,78;0;0;0;16,0;19,3;19,1;20,5;18,0;18,0;18,0;17,4;-405,0;21,4;1298
2022-07-06 22:00:00;17,4;100373;65;0,008;0,0;1,5;206;2,1;-1,3;-0,64;0;0;0;16,0;19,3;19,1;20,5;17,9;17,9;18,0;17,4;-405,6;21,5;1422
2022-07-06 23:00:00;17,3;100328;66;0,0081;0,0;1,2;219;2,1;-0,95;-0,76;0;0;0;16,0;19,3;19,1;20,5;17,7;17,8;18,0;17,4;-406,0;21,4;1413
2022-07-07 00:00:00;16,9;100270;69;0,0082;0,0;1,2;220;2,5;-0,92;-0,68;0;0;0;16,0;19,3;19,1;20,5;17,7;17,8;18,0;17,4;-405,3;21,6;1404
2022-07-07 01:00:00;16,8;100218;71;0,0084;0,0;1,3;212;2,6;-1,1;-0,64;0;0;0;16,0;19,3;19,1;20,5;17,6;17,7;18,0;17,4;-405,0;21,7;1383
2022-07-07 02:00:00;16,8;100172;72;0,0086;0,0;1,5;208;2,8;-1,31;-0,7;0;0;0;16,0;19,2;19,1;20,5;17,5;17,6;17,9;17,4;-405,9;21,7;1377
2022-07-07 03:00:00;16,7;100140;74;0,0088;0,0;1,4;212;2,1;-1,16;-0,74;0;0;0;16,0;19,2;19,1;20,5;17,4;17,6;17,9;17,4;-408,1;21,8;1440
2022-07-07 04:00:00;17,0;100102;76;0,0092;0,0;1,3;248;3,3;-0,37;-1,17;8;1;3;16,0;19,2;19,1;20,5;17,4;17,5;17,9;17,4;-406,9;21,7;1381
2022-07-07 05:00:00;17,4;100064;79;0,0097;0,0;2,0;274;3,9;0,15;-1,95;36;0;0;16,0;19,2;19,1;20,5;17,3;17,5;17,8;17,4;-409,6;21,8;1405
2022-07-07 06:00:00;17,1;100082;80;0,0098;0,05;2,3;274;5,9;0,21;-2,33;35;0;0;16,0;19,2;19,1;20,5;17,4;17,5;17,8;17,4;-407,6;21,5;1440
2022-07-07 07:00:00;16,0;100134;87;0,0099;0,2;3,1;291;6,1;1,14;-2,83;123;1;1;16,0;19,2;19,1;20,5;17,4;17,5;17,8;17,4;-411,1;21,1;1410
2022-07-07 08:00:00;16,4;100167;84;0,0097;0,15;4,0;306;8,4;2,42;-3,17;173;0;0;16,0;19,2;19,1;20,5;17,4;17,5;17,8;17,4;-411,8;21,0;1359
2022-07-07 09:00:00;16,0;100228;82;0,0093;0,73;4,0;305;7,2;2,3;-3,22;281;0;0;16,0;19,2;19,1;20,5;17,3;17,5;17,7;17,4;-409,9;21,0;1319
2022-07-07 10:00:00;15,6;100308;87;0,0096;0,09;3,3;306;6,2;1,95;-2,63;226;0;0;16,0;19,2;19,1;20,5;17,4;17,5;17,7;17,4;-410,9;20,7;1369
2022-07-07 11:00:00;17,2;100358;76;0,0093;0,0;4,2;312;8,7;2,82;-3,06;287;0;0;16,0;19,2;19,1;20,5;17,4;17,5;17,7;17,4;-415,6;20,9;1296
2022-07-07 12:00:00;16,8;100420;77;0,0091;0,0;3,2;312;6,6;2,19;-2,36;129;0;0;16,0;19,2;19,1;20,5;17,4;17,5;17,7;17,4;-410,0;21,1;1327
2022-07-07 13:00:00;17,4;100468;75;0,0092;0,0;3,4;309;6,3;2,06;-2,66;116;2;3;16,0;19,2;19,1;20,5;17,3;17,5;17,7;17,4;-414,9;21,2;1354
2022-07-07 14:00:00;17,2;100520;77;0,0094;0,0;3,4;299;6,2;1,68;-2,89;133;0;0;16,0;19,2;19,1;20,5;17,3;17,5;17,7;17,4;-413,4;21,1;1316
2022-07-07 15:00:00;17,7;100540;77;0,0097;0,0;2,7;297;5,1;1,22;-2,4;142;0;0;16,0;19,2;19,1;20,5;17,3;17,5;17,7;17,4;-411,7;21,1;1382
2022-07-07 16:00:00;18,2;100554;73;0,0095;0,0;3,0;306;6,2;1,78;-2,42;77;0;0;16,0;19,2;19,1;20,5;17,4;17,5;17,7;17,4;-414,0;21,2;1326
2022-07-07 17:00:00;18,2;100590;67;0,0087;0,0;4,1;324;8,2;3,39;-2,38;104;0;0;16,0;19,2;19,1;20,5;17,3;17,5;17,7;17,4;-416,9;21,1;1394
2022-07-07 18:00:00;17,6;100662;61;0,0076;0,0;3,8;322;7,6;2,99;-2,25;126;0;0;16,0;19,2;19,0;20,5;17,0;17,4;17,7;17,4;-413,8;21,2;1425
2022-07-07 19:00:00;16,3;100762;64;0,0074;0,0;3,0;320;6,2;2,3;-1,9;17;0;0;16,0;19,2;19,0;20,5;16,7;17,3;17,6;17,4;-419,0;21,2;1337
2022-07-07 20:00:00;16,0;100860;66;0,0074;0,0;2,8;319;5,9;2,15;-1,78;0;0;0;15,9;19,2;19,0;20,5;16,4;17,2;17,6;17,3;-430,7;21,2;1376
2022-07-07 21:00:00;15,6;100928;68;0,0075;0,0;2,5;313;5,5;1,71;-1,77;0;0;0;15,9;19,1;19,0;20,5;16,3;17,1;17,6;17,4;-416,0;21,2;1363
2022-07-07 22:00:00;15,1;100983;70;0,0074;0,0;2,2;311;4,2;1,49;-1,62;0;1;4;15,9;19,1;19,0;20,5;16,2;16,9;17,6;17,4;-422,2;21,2;1281
2022-07-07 23:00:00;14,7;101017;72;0,0074;0,0;2,3;310;4,4;1,47;-1,71;0;0;0;15,9;19,1;19,0;20,5;16,1;16,9;17,5;17,3;-425,1;21,3;1293
2022-07-08 00:00:00;14,4;101030;74;0,0075;0,0;2,2;310;3,9;1,4;-1,65;0;0;0;15,9;19,1;19,0;20,5;16,0;16,8;17,5;17,3;-434,0;21,0;1298
2022-07-08 01:00:00;13,9;101037;72;0,0071;0,0;2,0;325;3,8;1,61;-1,11;0;0;0;15,9;19,1;19,0;20,5;15,9;16,7;17,4;17,3;-435,5;20,9;1322
2022-07-08 02:00:00;13,6;101048;73;0,007;0,0;1,1;299;2,0;0,55;-0,91;0;0;0;15,9;19,1;19,0;20,5;15,8;16,6;17,4;17,3;-428,7;20,9;1345
2022-07-08 03:00:00;13,4;101044;76;0,0072;0,0;1,5;321;2,8;1,16;-0,9;2;0;0;15,9;19,1;19,0;20,5;15,8;16,6;17,3;17,3;-431,4;20,8;1309
2022-07-08 04:00:00;13,6;101082;76;0,0073;0,0;1,5;333;3,2;1,28;-0,66;24;0;0;15,9;19,1;19,0;20,5;15,7;16,5;17,3;17,3;-441,4;21,0;1336
2022-07-08 05:00:00;13,9;101124;74;0,0073;0,0;1,7;334;3,2;1,44;-0,73;79;0;0;15,9;19,1;19,0;20,5;15,7;16,4;17,2;17,3;-443,3;20,9;1289